Regional Weather Roundup
Issued by NWS

Home | Current Version | Previous Version | Graphics & Text | Print | Product List | Glossary On
Versions: 1 2 3 4 5 6 7 8 9 10 11 12 13 14 15 16 17 18 19 20 21 22 23 24 25 26 27
000
ASUS45 KTFX 221110
RWRMT
MONTANA REGIONAL WEATHER ROUNDUP
NATIONAL WEATHER SERVICE GREAT FALLS MT
400 AM MST MON JAN 22 2018

NOTE: "FAIR" INDICATES FEW OR NO CLOUDS BELOW 12000 FEET WITH NO
SIGNIFICANT WEATHER AND/OR OBSTRUCTIONS TO VISIBILITY.

MTZ001>007-043-221200-
WEST OF THE DIVIDE

CITY           SKY/WX    TMP DP  RH WIND       PRES   REMARKS
KALISPELL      MOCLDY    30  25  81 SW10      30.01S WCI  21
MISSOULA       CLOUDY    33  26  75 SE13      30.06S WCI  24
BUTTE          CLOUDY    21  12  68 N3        30.03F
MULLAN PASS    SNOW      25  23  92 SW3       29.96R VSB 1/2
ANACONDA         N/A     27  18  69 SE16G22   30.02S WCI  14
DEER LODGE       N/A     28  21  74 S8        30.04S WCI  20
EUREKA           N/A     37  25  60 MISG      29.99R
HAMILTON         N/A     34  25  69 S13       30.07S WCI  25
PLAINS           N/A     33  26  76 CALM      30.04R
RONAN            N/A     36  28  75 S13       30.05S WCI  27
$$

MTZ008-052>055-221200-
SOUTHWEST MONTANA

CITY           SKY/WX    TMP DP  RH WIND       PRES   REMARKS
BOZEMAN        FAIR       6   1  80 S3        30.09S
DILLON         CLOUDY    22  14  71 SE3       30.07F
ENNIS          CLOUDY    27  16  63 S15G26    30.13F WCI  15
W YELLOWSTONE  CLOUDY    18  14  86 CALM      30.14S
THREE FORKS      N/A     17  11  77 CALM      30.05F
TWIN BRIDGES     N/A     24  12  60 S1        30.06F
$$

MTZ009-010-012-014-046-048-049-054-221200-
EAST SLOPES AND CENTRAL MONTANA

CITY           SKY/WX    TMP DP  RH WIND       PRES   REMARKS
CUT BANK       FAIR      33  21  61 SW16      29.88R WCI  23
GREAT FALLS    FAIR      33  15  47 SW21      29.93F WCI  21
MALMSTROM AFB  MOCLDY    33  19  55 SW17      29.93F WCI  22
HELENA         FAIR      19  13  77 W6        30.05S WCI  11
AUGUSTA        FAIR      27  20  75 S14       29.90R WCI  16
BOWMANS CRNR   FAIR      26  17  68 S29       29.90F WCI  10
CHOTEAU          N/A     32  19  59 S5G13     29.92R
FAIRFIELD      FAIR      31  18  57 S22G29    29.90R WCI  19
POWER          FAIR      29  18  62 S17       29.91S WCI  18
RAYNESFORD     MOCLDY    36  16  43 SW18G35   29.94S WCI  26
ULM            MOCLDY    34  18  53 SW10      29.96R WCI  26
WHITE SULPHUR    N/A     27  14  59 SW20G38   29.97F WCI  13
$$

MTZ011-013-016-021-045-047-050-051-221200-
NORTH CENTRAL MONTANA

CITY           SKY/WX    TMP DP  RH WIND       PRES   REMARKS
HAVRE          MOCLDY    27  19  72 SW13      29.91R WCI  16
LEWISTOWN      FAIR      27  14  58 SW18      29.93R WCI  14
N BAR RANCH    FAIR      19   3  49 VRB6      29.93S WCI  11
CHINOOK          N/A     16  10  79 CALM      29.92S
DENTON         FAIR      23  13  66 MISG      29.90S
GEYSER         MOCLDY    34  18  52 NW6       29.92R WCI  29
GRASS RANGE    FAIR      29  11  45 W22       29.89S WCI  16
STANFORD       MOCLDY    32  18  57 W10       29.92S WCI  23
WINIFRED       FAIR      30  13  50 SW6       29.91R WCI  24
$$

MTZ017>020-022>027-061-062-221200-
NORTHEAST MONTANA

CITY           SKY/WX    TMP DP  RH WIND       PRES   REMARKS
GLASGOW        FAIR      11   8  88 SE9       29.95F WCI  -2
GLENDIVE       FAIR       9   6  88 S7        29.99S WCI  -2
JORDAN           N/A      3  -1  83 CALM      29.94F
MALTA          CLEAR      1   0  92 NE3       29.96S
SIDNEY         FAIR       8   5  87 SW9       30.00S WCI  -5
WOLF POINT     CLOUDY    -1  -5  82 SW5       30.00R
PLENTYWOOD       N/A     18  14  86 CALM      29.96F
POPLAR           N/A      1  -4  78 NW5       30.00R
SCOBEY           N/A      7   0  73 CALM      29.94S
$$

MTZ028>42-056>058-221200-
SOUTHCENTRAL AND SOUTHEAST MONTANA

CITY           SKY/WX    TMP DP  RH WIND       PRES   REMARKS
BAKER          FAIR       4   2  91 S5        29.99S
BILLINGS       FAIR      25  15  66 SW9       30.00F WCI  15
LIVINGSTON     FAIR      28  15  58 SW29G56   30.02R WCI  12
MILES CITY     FAIR       6   4  91 S8        30.00S FOG     WCI  -7
BIG TIMBER     CLEAR     28  14  54 W29G36    30.00F WCI  13
EKALAKA          N/A     19  10  68 SE3       29.94S
FORSYTH          N/A     12  10  92 CALM      29.99F
HARLOWTON      MOCLDY    26  14  60 NW35G41   29.96R WCI   9
LAUREL           N/A     23  14  68 W10       30.02S WCI  12
$$

REGIONAL REPORTS...DAKOTAS

CITY           SKY/WX    TMP DP  RH WIND       PRES   REMARKS
WILLISTON      FAIR       6   2  83 CALM      30.00
MINOT          FOG        6   4  91 CALM      30.01S VSB 1/4
DICKINSON      FAIR      15  11  83 W9        29.95S WCI   3
BEACH          FAIR      14  12  92 CALM      30.00S
CROSBY         FAIR       7   5  92 S8        29.99S WCI  -6
TIOGA          FOG        1   1 100 W5        29.99S VSB 1/2
BISMARCK       FOG       18  16  92 CALM      30.03R VSB 1/2
GRAND FORKS    CLOUDY    24  21  88 NE5       30.11R
FARGO          CLOUDY    25  24  96 N13       30.03F WCI  14
BUFFALO SD       N/A     17  11  77 NW10      29.90F WCI   5
RAPID CITY     FAIR      28  17  63 N17       29.95S WCI  16
$$

REGIONAL REPORTS...WYOMING/IDAHO/WASHINGTON

CITY           SKY/WX    TMP DP  RH WIND       PRES   REMARKS
GILLETTE       FAIR      20  10  65 VRB6      29.97S WCI  12
SHERIDAN       FAIR       9   2  73 CALM      29.97F
BUFFALO WY     FAIR      21   1  41 W8        29.96S WCI  11
CODY           FAIR      26   6  42 W20G25    30.01S WCI  12
YELLOWSTONE LA   N/A      5   2  87 CALM      30.15F
IDAHO FALLS    FAIR      20  17  88 CALM      30.22F
SALMON         MOCLDY    23  19  85 CALM      30.15F
BOISE          FLURRIES  36  30  79 SE12      30.16F WCI  28
SPOKANE        FAIR      33  32  96 S5        30.05R
$$

REGIONAL REPORTS...ALBERTA

CITY           SKY/WX    TMP DP  RH WIND       PRES   REMARKS
CALGARY        PTCLDY    27  10  50 S5        29.73R
CARDSTON         N/A     34  18  51 NW3         N/A
EDMONTON       CLOUDY    19  14  79 SE7       29.69F WCI  10
FORT MCMURRAY  CLOUDY    12  10  92 SE10G17   29.84S WCI  -1
HIGH LEVEL     LGT SNOW   3   0  85 S8        29.79S WCI -10
LETHBRIDGE     MOCLDY    32  21  64 SW20      29.83R WCI  20
LLOYDMINSTER   CLOUDY    19  19 100 SE14G22   29.72S WCI   6
MEDICINE HAT   CLOUDY    34  23  64 S17G24    29.80S WCI  23
MILK RIVER       N/A     32  23  69 W12         N/A  WCI  23
PEACE RIVER    MOCLDY    12   9  85 N3        29.69R
PINCHER CREEK  CLEAR     32  19  59 W20G30    29.82R WCI  20
WATERTON GATE    N/A     34  19  55 SW28G45     N/A  WCI  20
$$

REGIONAL REPORTS...SASKATCHEWAN

CITY           SKY/WX    TMP DP  RH WIND       PRES   REMARKS
CORONACH         N/A      5   1  85 W1          N/A
CYPRESS HILLS    N/A     23  14  68 SW5         N/A
ESTEVAN        CLEAR      1  -2  85 E6        29.99S WCI -10
MOOSE JAW        N/A     19  14  79 SE10        N/A  WCI   8
PRINCE ALBERT  LGT SNOW   9   5  85 E12       30.01F FOG     WCI  -6
REGINA         PTCLDY     9   5  85 SE9       29.94F WCI  -5
ROCKGLEN         N/A     16  12  86 SW12        N/A  WCI   3
SASKATOON      LGT SNOW  19  18  93 E13G21    29.88F FOG     WCI   7
SWIFT CURRENT  PTCLDY    27  16  63 SW17      29.81F WCI  14
VAL MARIE        N/A      1  -4  78 NE1         N/A
$$




USA.gov is the U.S. government's official web portal to all federal, state and local government web resources and services.